STARLINK-34817, 65362

Orbit data source: Space-Track

STARLINK-34817, 65362 is a payload satellite owned by SpaceX/Seattle (US) in LEO that was launched on Thu, 28 Aug 2025 UTC via an FALCON 9 launch vehicle from the Air Force Eastern Test Range (AFETR). Payload-class satellites include a variety of spacecraft equipped with specific instruments for various scientific and technological missions. These include communications satellites like Starlink; space stations such as the ISS; scientific satellites like the Hubble; Earth observation satellites from companies like Planet Labs, Umbra, and HawkEye 360; GPS; miniature CubeSats for education and research; and military/defense satellites.

Loading next visibility...
Identifier
65362, 2025-190M
Orbit
LEO
Country
Flag of USUS
Related business
Manufacturer
SpaceX/Seattle
Mission
Operational Commercial Communications
Bus & Motor
STARLINK V2MO, Unknown motor
Mass
575 kg wet, ~530 kg dry
Launch date (UTC)
2025-08-28 (7 months ago)
Launch vehicle
FALCON 9
Launch site
Air Force Eastern Test Range (AFETR)
Object type
Payload
Rocket body
Debris
Shape & HBR
Box + 2 Pan, 17.7 m
Radar Cross Section
36.964 m², Large (>1 m²)

Expand to show TLE details & history
Last TLE update: 13 hours ago

TLE from 13 hours ago
0 STARLINK-34817
1 65362U 25190M   26094.11540324  .00025980  00000-0  88647-3 0  9990
2 65362  53.1600  50.3842 0001195  80.1085 280.0051 15.30190822 33642
Epoch: 2026-04-04T02:46Z
TLE epoch observation values (Epoch: 2026-04-04T02:46:10.839Z)
Latitude
-0.00001°
Longitude
176.39922°
Altitude
476 km
Speed
7.629 km/s
True Right ascension
03h 21m 32s
True Declination
0° 00' 00"
Sunlit
Object was in daylight at epoch
Visualization orbit readout
Latitude
Unknown
Longitude
Unknown
Altitude
Unknown
Speed
Unknown
Apparent Right ascension
Unknown
Apparent Declination
Unknown
Sunlit
N/A
Visualization observer readout
Local Sidereal Time
21:25:31
Azimuth
Unknown
Elevation
Unknown
Doppler factor
Unknown
Orbital elements
Apogee altitude
476.318 km
Perigee altitude
474.68 km
Semi-major axis
6,853.636 km
Eccentricity
0.00012
Inclination
53.16°
RAAN
50.3842°
Arg. of periapsis
80.1085°
True anomaly
279.99161°
Mean anomaly
280.0051°
Eccentric anomaly
279.99836°
Mean motion
3.82527 °/min
Orbital period
94.11 mins
BSTAR
0.00088647
Loading maneuver chart data...
Computing Atmospheric mass density...
Loading historical data...
Loading historical data...
Loading historical data...
Loading historical data...
Loading historical data...
Loading historical data...
Loading historical data...

Documentation

Showing up to 5 results
|